User: anonymous   Login
Location: Newark
(41.0400°S, 62.7845°W)
Time: 01:14:31
(UTC+00:00)
Language:

CZ-4B R/B - Orbit

View from above orbital plane
View from above orbital plane
View from above satellite
View from above satellite

Ground track
Ground track

The orbit data is extracted from the following two-line orbital elements,

1 44888U 19093K   22226.28616459  .00002196  00000-0  10590-3 0  9995
2 44888  97.8730 342.3463 0115033 316.0158  43.1960 15.14248031146283
Epoch (UTC): 14 August 2022 06:52:04
Eccentricity: 0.0115033
inclination: 97.8730°
perigee height: 444 km
apogee height: 602 km
right ascension of ascending node: 342.3463°
argument of perigee: 316.0158°
revolutions per day: 15.14248031
mean anomaly at epoch: 43.1960°
orbit number at epoch: 14628

The dashed part of the orbit path shows where the satellite is in the earth's shadow,  

DLR